Hyannis, MA

2:59 AM EDT on October 18, 2017 (GMT -0400)
Barnstable Municipal-Boardman-Polando Field

Weather History for KHYA - December, 2014

Change the Weather History Date:

Tuesday, December 9, 2014

  Actual Average Record
Temperature  
Mean Temperature 48 °F -  
Max Temperature 55 °F 44 °F 60 °F (1951)
Min Temperature 42 °F 27 °F 4 °F (1934)
Degree Days  
Heating Degree Days 16    
Moisture  
Dew Point 49 °F    
Average Humidity 94    
Maximum Humidity 100    
Minimum Humidity 82    
Precipitation  
Precipitation 2.05 in - - ()
Sea Level Pressure  
Sea Level Pressure 29.74 in    
Wind  
Wind Speed 15 mph (ESE)    
Max Wind Speed 25 mph    
Max Gust Speed 46 mph    
Visibility 4 miles    
Events Rain , Thunderstorm    
Averages and records for this station are not official NWS values.
T = Trace of Precipitation, MM = Missing Value Source: NWS Daily Summary

Daily Weather History Graph

Daily Weather History Graph

Search for Another Location

Airport or City:

Trip Planner

Search our weather history database for the weather conditions in past years. The results will help you decide how hot, cold, wet, or windy it might be!

Date:

Astronomy

Dec. 09, 2014 Rise Set
Actual Time 6:56 AM EST 4:10 PM EST
Civil Twilight 6:24 AM EST 4:41 PM EST
Nautical Twilight 5:50 AM EST 5:16 PM EST
Astronomical Twilight 5:16 AM EST 5:50 PM EST
Moon 7:28 PM EST (12/9) 9:05 AM EST (12/9)
Length of Visible Light 10h 17m
Length of Day
9h 14m
Waning Gibbous, 90% of the Moon is Illuminated
Dec 9
Waning Gibbous
Dec 14
Last Quarter
Dec 21
New
Dec 28
First Quarter
Jan 4
Full

Hourly Weather History & Observations

Time (EST) Temp. Windchill Dew Point Humidity Pressure Visibility Wind Dir Wind Speed Gust Speed Precip Events Conditions
12:25 AM 42.1 °F 34.9 °F 37.9 °F 85% 30.40 in 5.0 mi ENE 13.8 mph 20.7 mph 0.00 in Rain Light Rain
12:56 AM 42.1 °F 34.9 °F 39.0 °F 89% 30.37 in 9.0 mi ENE 13.8 mph - 0.00 in   Overcast
1:56 AM 44.1 °F 37.4 °F 39.0 °F 82% 30.34 in 10.0 mi East 13.8 mph 24.2 mph N/A   Overcast
2:56 AM 44.1 °F 36.8 °F 39.9 °F 85% 30.28 in 10.0 mi ENE 16.1 mph 25.3 mph N/A   Overcast
3:56 AM 45.0 °F 39.3 °F 41.0 °F 86% 30.27 in 10.0 mi East 11.5 mph 25.3 mph N/A   Overcast
4:56 AM 46.0 °F 39.3 °F 42.1 °F 86% 30.24 in 10.0 mi ENE 16.1 mph 29.9 mph N/A   Overcast
5:56 AM 46.0 °F 40.6 °F 43.0 °F 89% 30.21 in 7.0 mi ENE 11.5 mph 19.6 mph 0.00 in Rain Light Rain
6:56 AM 46.0 °F 41.0 °F 44.1 °F 93% 30.18 in 6.0 mi ENE 10.4 mph - 0.06 in Rain Light Rain
7:56 AM 46.0 °F 39.6 °F 44.1 °F 93% 30.13 in 3.0 mi ENE 15.0 mph 23.0 mph 0.10 in Rain Rain
8:56 AM 46.9 °F - 45.0 °F 93% 30.07 in 3.0 mi ENE 18.4 mph 31.1 mph 0.13 in Rain Rain
9:56 AM 48.0 °F - 46.0 °F 93% 30.05 in 3.0 mi ENE 19.6 mph 29.9 mph 0.26 in Rain Heavy Rain
10:56 AM 48.0 °F - 46.0 °F 93% 29.99 in 2.0 mi ENE 21.9 mph 27.6 mph 0.26 in Rain Heavy Rain
11:56 AM 48.9 °F - 46.9 °F 93% 29.90 in 2.0 mi ENE 17.3 mph 34.5 mph 0.29 in Rain Heavy Rain
12:56 PM 48.9 °F - 46.9 °F 93% 29.78 in 3.0 mi ENE 19.6 mph 36.8 mph 0.22 in Rain Rain
1:56 PM 50.0 °F - 48.9 °F 96% 29.69 in 3.0 mi East 20.7 mph 40.3 mph 0.16 in Rain Rain
2:03 PM 50.0 °F - 48.9 °F 96% 29.66 in 2.0 mi ENE 20.7 mph 36.8 mph 0.06 in Rain Heavy Rain
2:56 PM 52.0 °F - 50.0 °F 93% 29.62 in 3.0 mi East 17.3 mph 38.0 mph 0.25 in Rain Light Rain
3:56 PM 53.1 °F - 51.1 °F 93% 29.56 in 3.0 mi East 25.3 mph 46.0 mph 0.01 in Rain Light Rain
4:29 PM 53.1 °F - 51.1 °F 93% 29.53 in 2.0 mi East 17.3 mph 36.8 mph 0.16 in Rain , Thunderstorm Heavy Rain
4:32 PM 53.1 °F - 52.0 °F 96% 29.53 in 1.5 mi East 18.4 mph 35.7 mph 0.20 in Rain , Thunderstorm Heavy Thunderstorms and Rain
4:42 PM 53.1 °F - 52.0 °F 96% 29.51 in 2.0 mi East 16.1 mph 32.2 mph 0.25 in Rain , Thunderstorm Heavy Thunderstorms and Rain
4:49 PM 54.0 °F - 53.1 °F 97% 29.52 in 2.5 mi ESE 17.3 mph 31.1 mph 0.28 in Rain Heavy Rain
4:56 PM 55.0 °F - 53.1 °F 93% 29.54 in 3.0 mi ESE 20.7 mph 40.3 mph 0.30 in Rain Rain
5:14 PM 55.0 °F - 53.1 °F 93% 29.52 in 6.0 mi ESE 16.1 mph 40.3 mph 0.01 in Rain Light Rain
5:24 PM 55.0 °F - 53.1 °F 93% 29.52 in 9.0 mi ESE 11.5 mph 27.6 mph 0.01 in   Overcast
5:56 PM 55.0 °F - 54.0 °F 96% 29.51 in 7.0 mi ESE 17.3 mph 27.6 mph 0.01 in   Overcast
6:08 PM 55.0 °F - 54.0 °F 96% 29.50 in 6.0 mi ESE 12.7 mph 27.6 mph N/A   Overcast
6:38 PM 55.0 °F - 54.0 °F 96% 29.49 in 4.0 mi ESE 12.7 mph 27.6 mph N/A   Overcast
6:56 PM 55.0 °F - 54.0 °F 96% 29.49 in 2.0 mi ESE 12.7 mph 23.0 mph N/A   Overcast
7:10 PM 55.0 °F - 54.0 °F 96% 29.50 in 1.0 mi SE 8.1 mph 24.2 mph N/A   Overcast
7:17 PM 54.0 °F - 54.0 °F 100% 29.50 in 0.8 mi SE 12.7 mph 21.9 mph N/A   Mist
7:53 PM 53.6 °F - 53.6 °F 100% 29.50 in 1.0 mi SE 11.5 mph 19.6 mph N/A   Mist
7:56 PM 54.0 °F - 53.1 °F 97% 29.50 in 1.0 mi SSE 11.5 mph 19.6 mph N/A   Mist
8:02 PM 54.0 °F - 53.1 °F 97% 29.50 in 3.0 mi SSE 10.4 mph 18.4 mph N/A   Overcast
8:10 PM 53.1 °F - 53.1 °F 100% 29.50 in 6.0 mi SSE 8.1 mph 17.3 mph N/A   Overcast
8:56 PM 54.0 °F - 52.0 °F 93% 29.49 in 7.0 mi South 12.7 mph 24.2 mph N/A   Overcast
9:56 PM 51.1 °F - 50.0 °F 96% 29.52 in 6.0 mi South 12.7 mph 20.7 mph N/A   Overcast
10:14 PM 51.1 °F - 50.0 °F 96% 29.51 in 2.5 mi SSW 11.5 mph 21.9 mph N/A   Overcast
10:30 PM 50.0 °F - 48.9 °F 96% 29.53 in 1.5 mi South 10.4 mph - N/A   Overcast
10:56 PM 48.9 °F - 48.0 °F 97% 29.54 in 1.0 mi South 12.7 mph 19.6 mph N/A   Mist
11:24 PM 48.0 °F - 48.0 °F 100% 29.51 in 2.5 mi South 13.8 mph - N/A   Overcast
11:41 PM 48.0 °F - 46.9 °F 96% 29.51 in 4.0 mi South 12.7 mph - N/A   Overcast
11:56 PM 48.0 °F - 46.9 °F 96% 29.50 in 5.0 mi South 12.7 mph - N/A   Overcast